Regional Weather Roundup
Issued by NWS

Home | Current Version | Previous Version | Graphics & Text | Print | Product List | Glossary On
Versions: 1 2 3 4 5 6 7 8 9 10 11 12 13 14 15 16 17 18 19 20 21 22 23 24 25 26 27 28 29 30 31 32 33 34 35 36 37 38 39 40 41 42 43 44 45 46 47 48 49 50
000
ASUS43 KIND 241009
RWRIN

WEATHER ROUNDUP FOR INDIANA
NATIONAL WEATHER SERVICE INDIANAPOLIS IN
500 AM EST MON NOV 24 2014

NOTE: "FAIR" INDICATES FEW OR NO CLOUDS BELOW 12,000 FEET WITH NO
SIGNIFICANT WEATHER AND/OR OBSTRUCTIONS TO VISIBILITY.

* - STATION DOES NOT REPORT WEATHER SUCH AS PRECIPITATION OR FOG.

+ - STATION NOT QUALITY CONTROLLED BY THE NATIONAL WEATHER SERVICE.
    USE DATA WITH CAUTION...ESPECIALLY DEWPOINT AND RELATIVE
    HUMIDITY OBSERVATIONS.

INZ001>003-010>013-019-020-241100-
NORTHWEST INDIANA

CITY           SKY/WX    TMP DP  RH WIND       PRES   REMARKS
KNOX *+        CLOUDY    50  48  94 SW10      29.12S
LA PORTE +     RAIN     N/A N/A N/A SW10G16   29.12R
MICHIGAN CITY+ DRIZZLE   48  48 100 SW9       29.11R
MONTICELLO +   LGT RAIN  52  52 100 S9        29.14F
RENSSELAER +   RAIN      50  50 100 SW9       29.13F VSB 1
VALPARAISO     LGT RAIN  49  49 100 SW12      29.12S FOG

$$

LMZ046-743>745-241100-
SOUTHERN LAKE MICHIGAN

STATION/POSITION TIME  TEMP WIND        PRES
                       AIR  DIR/SP/G
                 (UTC) (F)  (DEG/KT/KT) (MB)
MICHIGAN CITY    1000   49  190/ 14/ 17   N/A

$$

INZ004-005-014>016-021>024-241100-
NORTH CENTRAL INDIANA

CITY           SKY/WX    TMP DP  RH WIND       PRES   REMARKS
GOSHEN         LGT RAIN  63  50  62 SW14      29.13R
LOGANSPORT +   CLOUDY    52  52 100 SW13      29.16F
PERU/GRISSOM   CLOUDY    54  54 100 S15       29.16F
ROCHESTER +    CLOUDY    54  54 100 SW12      29.15F FOG
SOUTH BEND     RAIN      51  49  92 SW10      29.12S FOG
WARSAW +       HVY RAIN  52  52 100 SW9       29.15S

$$

INZ006>009-017-018-025>027-241100-
NORTHEAST INDIANA

CITY           SKY/WX    TMP DP  RH WIND       PRES   REMARKS
ANGOLA *+        N/A     52  43  71 SW14      29.14R
AUBURN +       CLOUDY    54  50  87 SW10G22   29.17S
FORT WAYNE     LGT RAIN  54  52  93 SW18      29.19S FOG
HUNTINGTON +   CLOUDY    54  53  97 SW10G18   29.18S

$$

INZ028-029-035-036-043>045-051>053-241100-
WEST CENTRAL INDIANA

CITY           SKY/WX    TMP DP  RH WIND       PRES   REMARKS
GREENCASTLE +  CLOUDY    54  52  94 S7        29.19F
LAFAYETTE      CLOUDY    53  52  96 S10       29.15F FOG
TERRE HAUTE    CLOUDY    56  53  90 SW17      29.19S THUNDER

$$

INZ030>032-037>040-046>048-054>057-064-065-241100-
CENTRAL INDIANA

CITY           SKY/WX    TMP DP  RH WIND       PRES   REMARKS
CP ATTERBURY + CLOUDY    57  54  88 S12G20    29.24F
FRANKFORT +    MOCLDY   N/A N/A N/A S12G18    29.19F
INDIANAPOLIS   LGT RAIN  53  53 100 S15       29.18F
-EAGLE CREEK   TSTM      55  54  96 VRB7      29.20F
KOKOMO *+      CLOUDY    54  52  94 SW16G23   29.18F
MARION +       CLOUDY    54  52  92 S16       29.20F
MT COMFORT *+  CLOUDY    55 N/A N/A S12G18    29.21F
SHELBYVILLE    LGT RAIN  58  54  86 S16       29.23F
ZIONSVILLE +   HVY RAIN  55  52  88 S10       29.20S

$$

INZ033-034-041-042-049-050-058-059-241100-
EAST CENTRAL INDIANA

CITY           SKY/WX    TMP DP  RH WIND       PRES   REMARKS
MUNCIE         CLOUDY    57  53  86 SW16G26   29.21F

$$

INZ060-061-067>069-081>083-085>088-241100-
SOUTHWEST INDIANA

CITY           SKY/WX    TMP DP  RH WIND       PRES   REMARKS
EVANSVILLE     CLOUDY    62  55  77 S21G33    29.26S
HUNTINGBURG *+ CLOUDY    61  55  82 S21G35    29.27F
WASHINGTON +   LGT RAIN  60  58  94 S18G26    29.22F

$$

INZ062-063-066-070>080-084-089>092-241100-
SOUTH CENTRAL AND SOUTHEAST INDIANA

CITY           SKY/WX    TMP DP  RH WIND       PRES   REMARKS
BLOOMINGTON    CLOUDY    59  55  87 S18G29    29.22F

$$



USA.gov is the U.S. government's official web portal to all federal, state and local government web resources and services.